Regional Weather Roundup
Issued by NWS

Home | Current Version | Previous Version | Text Only | Print | Product List | Glossary On
Versions: 1 2 3 4 5 6 7 8 9 10 11 12 13 14 15 16 17 18 19 20 21 22 23 24 25 26 27 28 29 30 31 32 33 34 35 36 37 38 39 40 41 42 43 44 45 46 47 48 49 50
000
ASUS43 KOAX 011602
RWRNE

WEATHER ROUNDUP FOR NEBRASKA
NATIONAL WEATHER SERVICE OMAHA NE
1100 AM CDT SAT OCT 01 2016

NOTES: SATELLITE DATA IS BEING USED TO AUGMENT CLOUD COVER ABOVE
       12000 FEET.
       "FAIR" INDICATES FEW OR NO CLOUDS BELOW 12,000 FEET WITH NO
       SIGNIFICANT WEATHER AND/OR OBSTRUCTIONS TO VISIBILITY.

  * THESE STATIONS DO NOT REPORT WEATHER SUCH AS RAIN...SNOW OR FOG.

NEZ001>004-019>022-054>056-011700-
NEBRASKA PANHANDLE

CITY           SKY/WX    TMP DP  RH WIND       PRES   REMARKS
SCOTTSBLUFF    SUNNY     60  47  61 CALM      30.09S
ALLIANCE       SUNNY     64  48  56 S5        30.06F
CHADRON        SUNNY     66  48  52 SW6       30.03S
KIMBALL        SUNNY     68  47  48 CALM      30.12S
SIDNEY         SUNNY     68  48  48 SW3       30.10S
$$

NEZ057>060-069>072-079>082-011700-
SOUTHWEST NEBRASKA

CITY           SKY/WX    TMP DP  RH WIND       PRES   REMARKS
NORTH PLATTE   PTSUNNY   65  47  52 S14       30.11F
IMPERIAL       SUNNY     65  47  52 S12       30.11S
LEXINGTON      SUNNY     67  46  47 S10G16    30.13S
MCCOOK         CLOUDY    62  47  57 S7        30.13R
OGALLALA       SUNNY     66  48  52 S8        30.09F
$$

NEZ005>010-023>029-035>040-094-011700-
NORTH CENTRAL NEBRASKA

CITY           SKY/WX    TMP DP  RH WIND       PRES   REMARKS
VALENTINE      CLOUDY    63  46  54 S9        30.06S
AINSWORTH      CLOUDY    65  49  56 S13       30.08S
BROKEN BOW     SUNNY     65  47  52 S14       30.12S
O`NEILL        MOSUNNY   64  46  53 S10       30.13F
ORD            MOSUNNY   60  46  59 SE6       30.13S
THEDFORD       CLOUDY    66  49  54 S9        30.10S
$$

NEZ041-046>049-061>064-073>077-083>087-011700-
SOUTH CENTRAL NEBRASKA

CITY           SKY/WX    TMP DP  RH WIND       PRES   REMARKS
GRAND ISLAND   MOSUNNY   64  50  60 E8        30.15S
AURORA         PTSUNNY   61  55  83 S5        30.15S
HASTINGS       SUNNY     65  48  54 SE7       30.16S
HEBRON         MOSUNNY   61  54  76 CALM      30.15F
HOLDREGE       SUNNY     67  45  45 S9        30.13F
KEARNEY *      SUNNY     64  48  55 SE6       30.13S
YORK           CLOUDY    63  54  72 S3        30.15S
$$

NEZ011>018-030>034-042>045-011700-
NORTHEAST NEBRASKA

CITY           SKY/WX    TMP DP  RH WIND       PRES   REMARKS
NORFOLK        MOSUNNY   65  53  65 SE3       30.14F
ALBION         MOSUNNY   64  53  66 SE8       30.15S
BLAIR          CLOUDY    62  56  80 NE5       30.14S
FREMONT        CLOUDY    62  54  75 CALM      30.15S
TEKAMAH        CLOUDY    62  54  74 NE6       30.14S
WAYNE          MOSUNNY   65  56  73 CALM      30.15S
$$

NEZ050>053-065>068-078-088>093-011700-
SOUTHEAST NEBRASKA

CITY           SKY/WX    TMP DP  RH WIND       PRES   REMARKS
LINCOLN        SUNNY     64  55  72 CALM      30.15F
OMAHA EPPLEY   CLOUDY    63  54  72 N7        30.14S
BEATRICE       MOSUNNY   64  56  76 CALM      30.15S
FALLS CITY       N/A     62  55  77 N3        30.14R
NEBRASKA CITY  CLOUDY    62  53  72 NE3       30.15R
PLATTSMOUTH    CLOUDY    62  53  72 CALM      30.15R
$$

NEZ044-045-051>053-067-011700-
OMAHA AREA

CITY           SKY/WX    TMP DP  RH WIND       PRES   REMARKS
OMAHA EPPLEY   CLOUDY    63  54  72 N7        30.14S
BLAIR          CLOUDY    62  56  80 NE5       30.14S
FREMONT        CLOUDY    62  54  75 CALM      30.15S
MILLARD        CLOUDY    63  55  76 CALM      30.15R
OFFUTT AFB     CLOUDY    64  56  76 NW3       30.13S
PLATTSMOUTH    CLOUDY    62  53  72 CALM      30.15R
WAHOO          FAIR      64  54  69 N3        30.15S
$$



USA.gov is the U.S. government's official web portal to all federal, state and local government web resources and services.